Weather Roundup
Issued by NWS Chicago, IL

Home | Current Version | Previous Version | Graphics & Text | Print | Product List | Glossary On
Versions: 1 2 3 4 5 6 7 8 9 10 11 12 13 14 15 16 17 18 19 20 21 22 23 24 25 26 27 28 29 30 31 32 33 34 35 36 37 38 39 40 41 42 43 44 45 46 47 48 49 50
000
NZUS59 KLOT 022108
HRRLOT

CHICAGO AREA WEATHER ROUNDUP
NATIONAL WEATHER SERVICE CHICAGO/ROMEOVILLE IL
400 PM CDT TUE JUN 02 2015

NOTE: "FAIR" INDICATES FEW OR NO CLOUDS BELOW 12,000 FEET WITH NO
SIGNIFICANT WEATHER AND/OR OBSTRUCTIONS TO VISIBILITY.

* THESE STATIONS ARE NOT UNDER NWS QUALITY CONTROL. THEY ALSO MAY NOT
  REPORT WEATHER SUCH AS PRECIPITATION OR FOG.

ILZ005-006-012>014-019>023-022200-
NORTHEAST ILLINOIS

CITY           SKY/WX    TMP DP  RH WIND       PRES   REMARKS
OHARE          MOSUNNY   69  40  34 SE8       30.09F
MIDWAY         MOSUNNY   70  48  45 E7        30.10F
AURORA         SUNNY     73  46  38 E9        30.08F
LANSING*       SUNNY     69  47  46 NE10      30.10F
JOLIET*        SUNNY     74  48  40 SE8       30.09F
WAUKEGAN       SUNNY     63  45  51 SE6       30.11F
DUPAGE AIRPORT SUNNY     71  45  39 SE7       30.08F
WHEELING       SUNNY     67  41  38 E8        30.12F
KANKAKEE*      SUNNY     70  52  51 E9        30.09F
MORRIS*        SUNNY     73  44  36 SE9       30.07F
LEWIS AIRPORT* SUNNY     73  44  35 SE9       30.09S
NORTHERLY IS     N/A     61  50  67 MISG        N/A
$$

WIZ051-052-058>065-066-070>072-022200-
SOUTHEAST WISCONSIN

CITY           SKY/WX    TMP DP  RH WIND       PRES   REMARKS
MILWAUKEE      MOSUNNY   63  47  55 SE9       30.13F
KENOSHA*       SUNNY     65  47  52 E10       30.12F
RACINE*        SUNNY     62  47  57 SE8       30.14F
BURLINGTON     SUNNY     68  44  41 SE6       30.10F
WAUKESHA       SUNNY     66  41  39 S7        30.12S
WEST BEND      SUNNY     64  36  34 SE6       30.12S
$$

INZ001>003-010>013-019-020-022200-
NORTHWEST INDIANA

CITY           SKY/WX    TMP DP  RH WIND       PRES   REMARKS
GARY*          MOSUNNY   66  48  52 NE9       30.12F
MICHIGAN CITY* NOT AVBL
RENSSELAER*    NOT AVBL
VALPARAISO     SUNNY     71  50  47 E6        30.10F
$$

LMZ740>746-022200-
SOUTHERN LAKE MICHIGAN

STATION/POSITION TIME  SKY/WX   TEMP WIND        PRES    VSBY
                                AIR  DIR/SP/G
                 (UTC)          (F)  (DEG/KT/KT) (MB)    (MI)
HARRISON CRIB    2000            56   40/  9/  9   N/A
BURNHAM HARBOR   2100            61   10/  6/  8   N/A
CALUMET HARBOR   2000            61   20/  7/ 10   N/A
BURNS HARBOR     2000                 40/  9/ 10 1020.7F
MICHIGAN CITY    2000            54   10/  9/ 10   N/A
$$

ABBREVIATIONS USED IN REMARKS
   TC - TEMPERATURE IN CELSIUS
  WCI - WIND CHILL INDEX
   HX - HEAT INDEX
  VSB - VISIBILITY
$$



USA.gov is the U.S. government's official web portal to all federal, state and local government web resources and services.